Theta_e
303 301 300 302 303 304 303 303 303 304 302 302 302 301 302 303 303 303 304 305 305 305 306 305 304 304 304 304 304 303 303 304 304 304 303 302 303 303 303 302 303 303 302 302
301 299 302 302 302 303 302 302 302 303 302 301 302 301 304 304 304 305 305 304 306 306 306 305 305 304 304 304 304 303 303 303 304 304 303 302 303 303 303 302 302 302 302 302
300 301 301 302 302 302 302 302 304 304 304 302 301 302 304 306 304 305 306 306 307 308 307 306 305 304 304 304 303 303 303 303 304 303 303 302 303 303 303 302 302 302 301 301
301 300 300 300 302 302 302 301 303 303 304 302 304 303 304 307 307 305 305 306 307 308 308 307 306 305 304 304 303 303 303 302 303 303 303 302 303 303 303 302 301 301 301 301
300 298 299 301 301 301 302 301 303 303 303 304 304 302 303 304 308 308 304 306 307 308 308 307 306 306 305 304 303 303 303 302 302 303 302 302 302 303 303 302 301 301 301 301
299 298 299 300 298 299 299 301 302 302 302 303 302 303 303 308 309 307 307 307 308 307 308 307 307 306 305 304 303 303 302 302 302 302 302 302 302 302 302 302 301 301 301 300
300 298 297 298 298 298 300 301 306 307 303 305 302 303 304 306 306 307 305 306 307 307 306 305 306 305 304 304 303 303 302 302 302 302 302 301 302 302 302 301 300 301 301 300
299 300 296 296 298 298 298 302 305 305 314 313 302 305 308 306 305 306 306 306 306 306 305 305 305 306 305 304 303 303 302 302 302 302 302 301 301 301 301 301 300 301 301 300
301 305 297 296 296 298 299 301 302 302 297 303 303 303 305 305 304 303 304 305 305 305 304 304 304 304 305 305 305 305 304 303 302 302 302 301 301 301 301 300 300 301 301 300
303 301 297 296 296 297 298 299 301 300 299 304 307 305 307 309 306 303 303 303 305 305 305 304 305 305 306 307 307 306 304 304 303 303 302 301 300 301 301 300 300 301 300 300
295 301 298 295 294 296 296 298 299 301 305 308 309 307 303 306 306 304 302 304 305 305 305 305 305 305 306 306 306 306 304 304 303 302 302 301 300 300 300 300 300 301 300 300
299 298 297 296 296 295 296 298 300 302 303 303 307 306 305 307 305 304 304 306 307 306 305 305 305 305 305 305 305 306 305 304 303 302 301 301 300 300 300 299 300 300 299 299
301 299 295 298 296 293 293 297 299 300 300 300 303 305 302 305 306 306 305 307 306 306 306 305 305 305 305 305 305 305 305 304 303 302 301 300 300 299 299 299 300 300 299 299
300 303 298 305 302 294 292 294 297 297 297 302 305 306 306 305 305 305 306 307 307 307 307 307 306 306 305 306 306 306 305 304 302 301 301 300 300 299 299 299 300 299 299 299
300 303 302 303 303 297 297 293 296 299 302 302 305 303 304 305 304 304 306 308 307 307 307 307 306 306 306 306 306 306 304 304 302 301 301 300 300 299 299 299 300 298 298 299
297 301 299 301 301 302 304 301 297 299 300 301 302 301 303 303 304 303 306 307 307 307 308 307 307 307 307 307 307 306 304 303 303 303 301 300 299 299 299 299 299 298 298 299
297 300 303 308 304 301 303 303 302 299 298 301 301 303 302 302 301 303 305 306 306 306 307 308 307 308 308 307 307 306 305 304 303 302 301 299 299 299 299 299 298 298 298 298
300 301 304 307 303 307 306 303 302 303 303 302 302 304 304 304 305 305 305 306 306 307 307 307 307 307 307 307 307 306 304 304 302 301 300 299 299 299 299 299 298 298 297 298
303 305 306 307 307 306 306 304 301 299 302 301 302 302 302 303 303 303 304 305 306 306 307 307 307 308 308 307 307 305 304 302 302 301 300 300 300 299 299 299 298 297 297 298
302 304 306 306 306 305 304 303 304 298 306 290 294 302 301 301 301 303 305 306 306 306 305 305 305 305 306 306 305 304 304 302 302 302 302 301 301 300 300 299 298 297 296 297
302 304 304 304 305 304 298 295 301 302 302 289 289 289 291 297 297 296 301 304 305 305 306 306 306 306 306 304 303 304 303 304 305 304 302 301 300 300 299 298 298 297 296 296
302 303 304 303 304 305 289 293 297 291 288 287 286 286 288 288 290 291 295 297 299 301 301 302 303 303 303 303 303 303 304 306 304 303 302 301 300 300 299 298 298 297 296 296
299 296 296 294 295 292 289 288 287 287 286 285 284 284 285 286 287 288 291 294 295 297 299 299 299 300 301 301 302 304 305 304 303 302 301 301 300 299 298 298 298 298 297 296
292 293 291 292 295 291 288 286 285 284 284 284 283 283 285 284 286 288 289 290 292 294 296 298 299 299 300 300 301 301 301 301 301 301 301 300 299 299 298 298 297 297 297 297
288 289 290 292 291 291 286 281 280 282 282 280 281 281 281 282 285 286 287 289 290 290 293 295 296 297 297 298 298 299 299 299 299 299 299 299 299 298 298 297 297 297 297 297
287 285 288 289 286 285 287 279 277 277 277 278 279 281 280 279 278 282 288 288 289 290 290 292 293 294 296 297 298 299 300 299 298 298 298 299 298 297 297 297 297 297 296 296
Wind_Speed
4 3 7 10 7 1 3 3 5 3 3 4 8 14 19 18 18 22 30 32 33 38 34 33 35 35 34 32 31 31 29 26 25 21 15 11 9 9 11 13 13 12 14 17
3 7 5 4 2 4 3 3 6 2 3 3 7 14 19 17 15 27 29 34 41 37 36 35 36 39 39 38 35 33 31 28 25 21 17 12 10 9 10 13 13 14 16 18
6 3 4 4 4 4 3 5 4 3 3 4 6 9 8 7 17 25 29 35 39 40 37 38 41 41 40 41 39 37 32 29 26 24 20 15 13 11 11 13 14 15 16 18
5 3 4 3 4 6 4 3 2 1 1 4 2 6 7 9 8 6 18 30 35 37 39 36 40 42 41 40 38 36 32 30 29 27 22 18 15 14 12 13 14 14 16 17
5 6 4 3 5 6 5 2 3 2 2 3 3 3 8 5 8 8 9 18 25 30 34 37 40 39 38 38 37 34 32 31 31 28 24 21 19 16 13 14 15 15 17 17
0 1 2 3 3 2 6 4 3 3 2 2 7 7 5 5 5 2 1 10 14 18 22 24 28 38 39 37 35 31 32 33 33 30 26 24 21 18 15 15 15 15 17 16
1 4 1 3 5 5 1 5 1 3 1 6 1 3 7 11 6 4 6 6 12 13 15 19 22 30 35 35 34 31 31 34 34 32 29 25 23 20 17 16 16 16 17 16
6 5 8 5 5 5 6 5 5 7 4 3 3 7 6 8 5 5 10 13 12 14 15 18 24 26 29 30 29 29 30 33 34 32 29 26 25 22 19 17 16 16 17 16
5 3 1 2 1 4 6 5 1 5 2 3 5 7 10 7 6 6 13 15 16 15 16 18 21 28 28 26 24 23 25 30 32 32 30 28 27 23 19 18 17 16 17 16
5 1 1 2 1 2 3 1 2 2 2 4 5 5 7 5 8 7 7 13 19 17 18 19 21 26 26 22 19 21 23 26 29 31 30 30 27 24 21 19 17 16 16 15
4 4 1 3 8 9 4 3 2 2 4 5 2 6 7 9 8 10 11 19 21 23 24 23 23 24 25 22 20 21 25 27 29 29 30 30 28 25 22 19 16 16 15 14
7 5 5 9 1 1 2 6 6 4 5 4 3 8 4 4 5 6 7 13 22 23 24 24 24 23 25 23 22 22 24 27 28 28 29 29 28 26 23 19 16 16 14 13
5 4 1 6 4 4 4 6 5 3 3 7 5 7 1 2 1 2 4 3 13 20 21 22 21 25 27 22 19 21 24 26 27 28 28 29 29 26 22 19 16 15 14 13
6 2 7 11 7 6 4 6 9 6 4 5 18 4 1 4 1 2 3 7 12 17 21 23 25 28 31 27 21 23 25 27 28 28 28 29 27 24 21 18 16 14 14 13
5 6 7 15 1 3 6 6 12 17 22 9 19 14 14 13 10 9 15 16 21 22 24 28 29 30 32 31 28 29 28 26 28 28 29 28 24 23 21 18 16 15 14 13
5 6 4 11 10 9 5 9 13 19 11 21 21 18 3 6 10 9 21 20 26 28 29 31 32 32 36 33 32 31 30 28 27 28 28 24 24 23 20 18 16 15 14 13
8 4 6 16 5 4 3 25 12 8 9 15 17 24 6 8 14 21 33 29 30 35 34 35 37 37 38 35 34 31 30 28 29 28 25 25 24 23 21 18 17 15 14 13
9 9 4 7 5 12 10 8 19 22 22 19 20 24 21 19 25 39 39 33 37 41 41 41 39 39 40 36 31 29 28 29 29 28 27 26 25 23 21 19 17 16 15 15
12 8 6 8 13 10 8 6 7 8 12 15 21 23 21 27 25 39 34 41 44 45 45 42 38 38 37 36 32 30 30 31 29 30 28 26 24 23 21 19 17 16 16 16
16 16 11 8 7 11 8 11 15 5 13 13 18 14 13 6 7 18 21 31 33 33 34 37 35 38 39 37 33 30 32 32 31 28 25 23 22 22 21 19 17 17 16 16
10 11 20 18 14 7 8 14 1 6 4 17 18 19 18 5 11 29 24 23 20 17 26 31 27 28 28 30 31 31 32 31 24 22 22 23 23 21 19 19 19 18 17 17
5 5 7 8 11 13 18 4 2 7 8 10 17 22 23 21 28 31 26 25 24 23 24 24 21 21 22 25 28 32 32 25 23 23 23 24 22 22 21 21 20 19 19 18
1 3 3 7 4 4 10 16 9 10 8 12 15 19 24 28 32 37 36 32 28 24 20 21 20 17 17 21 27 31 28 27 27 27 26 25 24 24 23 23 21 21 21 20
1 3 2 6 2 3 12 12 8 10 12 16 18 19 21 23 31 35 38 36 34 30 25 20 17 18 15 17 22 27 28 26 27 27 27 27 27 27 26 25 24 24 23 21
4 2 0 4 0 3 12 11 12 11 11 15 17 20 19 21 25 29 34 35 36 34 29 22 19 12 13 13 16 19 22 24 26 26 26 27 29 29 28 28 27 25 23 21
2 4 1 6 1 3 4 13 12 10 14 18 21 24 21 18 20 24 29 33 33 34 32 27 23 20 15 15 12 13 19 24 26 25 25 27 28 30 30 30 30 28 27 25
Wind_Direction
183 133 211 208 216 333 108 216 245 258 197 209 232 258 269 263 254 250 245 236 230 230 232 222 216 217 219 223 221 218 215 211 213 214 222 237 263 290 312 311 308 314 315 323
74 226 195 128 162 205 210 249 264 260 181 204 281 268 268 261 242 234 231 231 232 232 228 221 216 217 220 223 220 219 218 214 216 217 229 240 260 281 304 309 305 308 321 323
175 195 137 168 171 176 217 202 236 250 301 232 316 282 259 271 240 246 235 235 238 233 225 217 213 217 219 221 220 220 220 217 218 220 227 236 251 268 298 313 307 311 314 318
230 180 176 166 203 158 225 183 179 252 14 247 182 284 286 277 264 226 235 227 232 230 227 220 215 216 218 221 221 223 223 220 221 224 230 238 249 261 290 307 306 305 312 315
233 161 174 177 211 174 217 136 136 138 201 349 240 264 271 254 263 244 235 230 229 227 224 217 214 218 220 221 219 224 226 225 226 227 230 237 245 256 279 301 307 306 309 312
193 310 211 193 83 16 144 99 59 51 83 316 218 194 248 224 241 310 353 219 220 213 210 210 215 216 217 216 219 222 223 225 228 232 233 238 246 254 274 295 304 302 307 310
172 215 159 148 91 5 163 104 328 343 5 227 306 175 262 273 255 230 211 192 187 193 195 196 194 205 210 210 216 220 224 223 227 232 235 238 246 254 271 292 301 304 307 309
169 288 169 183 194 183 188 180 169 204 201 247 20 231 251 243 262 230 187 172 178 190 201 199 196 198 203 212 216 222 223 223 228 234 237 240 245 253 269 288 298 300 303 304
143 261 51 47 19 135 189 205 255 101 55 53 224 274 295 227 193 167 167 176 185 194 193 190 189 197 200 206 212 217 221 227 233 237 238 241 245 253 267 283 291 294 298 299
208 50 8 327 302 247 190 208 108 355 161 248 270 260 233 231 215 215 219 207 198 193 193 189 186 186 190 194 206 219 228 234 238 240 240 243 247 252 262 276 282 287 291 293
140 125 333 45 204 185 162 210 188 142 172 187 264 257 227 229 222 205 226 219 207 200 199 195 188 189 193 197 211 224 233 237 238 239 239 241 246 251 260 271 273 280 285 286
209 151 177 204 197 25 232 202 170 140 230 233 172 258 256 222 193 192 227 231 215 206 203 204 201 197 199 204 217 227 237 243 241 240 240 242 244 248 257 263 266 274 278 282
192 224 79 339 354 349 203 202 203 129 81 216 154 263 20 349 8 91 157 158 208 206 207 209 212 212 210 218 233 243 246 248 246 240 239 240 242 247 253 252 259 268 272 275
139 239 188 222 196 136 191 209 199 149 166 188 231 249 348 187 195 169 202 221 216 210 213 221 224 220 218 228 254 263 256 249 244 240 240 241 243 246 246 245 253 260 264 266
109 242 299 286 270 152 197 181 189 206 221 198 252 219 231 262 277 267 266 239 230 228 230 229 226 224 225 236 258 265 255 247 241 238 240 241 241 239 235 240 247 253 255 258
169 210 130 270 259 222 239 240 217 216 230 243 256 263 10 251 261 286 276 261 244 236 244 230 228 233 239 248 261 263 253 246 240 240 240 238 234 231 232 237 243 247 249 253
161 194 182 253 169 116 264 238 223 215 211 220 236 250 220 240 243 245 251 249 255 258 248 241 241 246 249 251 263 255 249 245 241 238 236 232 228 225 229 233 239 243 246 249
171 191 201 268 138 223 237 189 205 215 234 228 253 260 251 251 252 256 255 259 259 259 263 262 257 258 259 258 258 248 244 241 237 234 228 223 219 221 225 230 237 240 243 244
215 213 232 228 227 256 284 240 181 163 248 223 230 246 253 253 261 267 259 257 261 264 266 265 263 262 259 251 255 249 243 236 227 223 220 217 218 221 226 231 235 237 240 242
205 217 222 229 238 250 247 256 222 126 251 21 350 265 276 231 225 265 287 273 270 275 279 278 273 264 256 251 244 244 238 221 214 213 215 214 217 222 228 230 233 238 240 241
213 219 229 236 248 253 355 334 76 182 303 354 1 350 351 341 324 340 344 316 303 299 298 300 279 266 258 246 240 233 217 209 208 207 210 212 217 222 226 229 234 238 239 242
215 216 215 221 239 235 349 37 3 7 15 15 11 5 352 339 337 347 353 354 351 334 320 303 288 268 249 236 227 208 203 202 200 204 209 214 218 222 224 230 236 239 241 244
213 357 311 25 24 87 66 82 72 26 349 350 356 4 356 351 353 353 348 342 345 348 354 337 312 272 243 220 210 206 206 208 204 208 213 218 221 225 227 230 234 238 242 242
30 115 15 359 163 71 127 97 48 14 354 343 342 349 356 348 349 349 350 347 338 339 353 346 326 295 268 244 231 224 226 225 222 221 222 223 226 228 229 233 236 239 242 244
204 2 121 240 210 20 126 59 360 348 327 333 335 339 342 343 338 337 340 343 345 342 334 338 337 304 289 275 268 258 245 236 234 232 232 233 234 234 234 238 242 246 249 248
167 207 232 279 5 246 291 356 350 0 340 331 330 330 331 331 326 326 328 330 333 336 337 325 319 314 289 284 283 273 253 243 239 237 236 238 239 240 239 242 245 247 248 244